#timestamp,LO_Frequency,Hit,StdDev 
1460170815.1,286046999.8,N
1460170816.0,286046999.8,N
1460170835.8,286047000.0,N
1460170855.6,286047000.9,N
1460170875.5,286046999.8,N
1460170895.3,286047002.4,N
1460170915.1,286047001.7,N
1460170935.9,286047003.5,N
1460170955.7,286047005.3,N
1460170975.5,286047002.9,N
1460170995.4,286047004.8,N
1460171015.2,286047006.3,N
1460171035.0,286047007.2,Y
1460171035.9,286047007.2,P
1460171055.8,286047006.5,N
1460171075.6,286047008.7,P
1460171095.4,286047009.2,Y
1460171115.3,286046999.7,P
1460171135.1,286046998.7,N
1460171136.0,286046998.7,N
1460171155.8,286046998.1,N
1460171175.7,286047000.8,N
1460171195.5,286046998.6,N
1460171215.3,286047000.7,N
1460171235.2,286046999.6,N
1460171255.9,286046996.7,N
1460171275.7,286046997.3,N
1460171295.5,286046997.4,N
1460171315.4,286046999.0,N
1460171335.2,286046998.8,N
1460171355.0,286046999.3,N
1460171355.9,286046999.3,N
1460171375.8,286046996.9,N
1460171395.6,286046994.1,N
1460171415.4,286046991.8,Y
1460171435.3,286046993.6,P
1460171455.1,286046995.6,N
1460171475.8,286046998.7,N
1460171495.7,286046998.2,N
1460171515.5,286046996.8,N
1460171535.3,286046995.7,N
1460171555.2,286046997.8,N
1460171575.9,286046997.1,N
1460171595.7,286046997.5,N
1460171615.6,286046999.1,N
1460171635.4,286046996.9,N
1460171655.2,286046997.0,N
1460171675.1,286046997.3,N
1460171676.0,286046997.3,N
1460171695.8,286046995.5,Y
1460171715.6,286046999.2,P
1460171735.5,286046997.0,N
1460171755.3,286046993.3,P
1460171775.1,286046995.9,N
1460171795.9,286046994.3,N
1460171815.7,286046997.9,N
1460171835.5,286046997.0,N
1460171855.3,286046998.8,N
1460171875.2,286046997.0,N
1460171895.0,286046998.6,N
1460171895.9,286046998.6,N
1460171915.7,286047000.2,N
1460171935.6,286047000.3,N
1460171955.4,286047001.1,N
1460171975.2,286046998.6,N
1460171995.1,286047001.0,N
1460171996.0,286047001.0,N
1460172015.8,286047000.5,N
1460172035.6,286047000.1,N
1460172055.5,286047000.0,N
1460172075.3,286047001.1,N
1460172095.1,286046999.4,N
1460172115.9,286047001.6,N
1460172135.7,286046998.8,N
1460172155.5,286046998.4,N
1460172175.3,286046997.0,N
1460172195.2,286046997.1,N
1460172215.0,286046999.4,N
1460172215.9,286046999.4,N
1460172235.7,286047002.8,N
1460172255.6,286047000.6,N
1460172275.4,286046999.9,N
1460172295.2,286047000.6,N
1460172315.1,286047000.3,N
1460172316.0,286047000.3,N
1460172335.8,286047000.7,N
1460172355.6,286047000.4,N
1460172375.5,286046999.6,N
1460172395.3,286046997.5,N
1460172415.1,286046997.6,N
1460172435.9,286047000.5,N
1460172455.7,286047000.4,N
1460172475.5,286047002.7,N
1460172495.4,286047002.4,N
1460172515.2,286047002.7,N
1460172535.0,286047002.4,N
1460172535.9,286047002.4,N
1460172555.7,286047002.2,N
1460172575.6,286047002.4,N
1460172595.4,286047000.4,N
1460172615.2,286047000.7,N
1460172635.1,286047001.1,N
1460172636.0,286047001.1,N
1460172655.8,286046996.5,N
1460172675.6,286047000.6,N
1460172695.5,286047000.9,N
1460172715.3,286047000.3,N
1460172735.1,286046999.7,N
1460172755.9,286046998.5,N
1460172775.7,286047000.6,N
1460172795.5,286047000.8,N
1460172815.4,286047000.5,N
1460172835.2,286047000.2,N
1460172855.0,286047001.0,N
1460172855.9,286047001.0,N
1460172875.8,286046996.6,N
1460172895.6,286046998.8,N
1460172915.4,286046996.9,N
1460172935.3,286046997.3,N
1460172955.1,286046994.1,Y
1460172956.0,286046994.1,P
1460172975.8,286046992.0,N
1460172995.7,286046991.6,N
1460173015.5,286046989.1,Y
1460173035.3,286046994.5,P
1460173055.2,286046993.1,P
1460173075.9,286046994.7,P
1460173095.7,286046992.3,Y
1460173115.6,286046997.9,P
1460173135.4,286046997.3,N
1460173155.2,286046997.1,N
1460173175.1,286046999.3,N
1460173176.0,286046999.3,N
1460173195.8,286047001.1,N
1460173215.6,286047000.3,N
1460173235.5,286046998.1,N
1460173255.3,286047000.7,N
1460173275.1,286046998.1,N
1460173295.8,286046998.5,N
1460173315.7,286047000.6,N
1460173335.5,286046998.7,N
1460173355.3,286046998.3,N
1460173375.2,286046998.7,N
1460173395.9,286047000.6,N
1460173415.7,286046999.1,N
1460173435.6,286046997.1,N
1460173455.4,286046999.5,N
1460173475.2,286046999.0,N
1460173495.1,286047001.1,N
1460173496.0,286047001.1,N
1460173515.8,286046998.9,N
1460173535.6,286046997.3,N
1460173555.5,286046996.9,N
1460173575.3,286046999.3,N
1460173595.1,286046998.4,N
1460173615.9,286046994.9,Y
1460173635.7,286046997.0,P
1460173655.5,286046996.5,P
1460173675.4,286046998.4,N
1460173695.2,286047001.2,N
1460173715.0,286046998.7,N
1460173715.9,286046998.7,N
1460173735.7,286046999.1,N
1460173755.6,286047002.5,N
1460173775.4,286047002.4,N
1460173795.2,286047004.1,N
1460173815.1,286047005.0,N
1460173816.0,286047005.0,N
1460173835.8,286047007.0,N
1460173855.6,286047006.2,N
1460173875.5,286047005.3,N
1460173895.3,286047005.5,N
1460173915.1,286047003.7,N
1460173935.9,286047001.3,N
1460173955.7,286047007.4,N
1460173975.5,286047006.0,N
1460173995.3,286047005.4,N
1460174015.2,286047005.0,N
1460174035.0,286047006.7,N
1460174035.9,286047006.7,N
1460174055.7,286047006.7,N
1460174075.6,286047007.0,N
1460174095.4,286047006.6,N
1460174115.2,286047006.4,N
1460174135.1,286047006.8,N
1460174136.0,286047006.8,N
1460174155.8,286047006.6,N
1460174175.6,286047004.9,N
1460174195.5,286047004.8,N
1460174215.3,286047004.9,N
1460174235.1,286047004.9,N
1460174255.9,286047004.7,N
1460174275.7,286047006.6,Y
1460174295.5,286047004.4,P
1460174315.4,286047001.3,P
1460174335.2,286047003.0,N
1460174355.0,286047004.4,N
1460174355.9,286047004.4,Y
1460174375.8,286047001.2,P
1460174395.6,286046999.5,N
